Location: Ferintosh
(52.7647°N, 112.9692°W)
Time: 15:41:22
(UTC+00:00)

Transit 2A - Pass Details

Date: 26 May 2024
Orbit: 592 x 959 km, 66.7° (Epoch: 23 June)

Event Time Altitude Azimuth Distance (km) Brightness Sun altitude
Rises 07:33:34 0° 259° (W) 3,041 9.0 -16.0°
Reaches altitude 10° 07:36:03 10° 271° (W) 2,184 8.4 -16.0°
Maximum altitude 07:40:26 30° 332° (NNW) 1,352 7.9 -16.0°
Drops below altitude 10° 07:45:14 10° 33° (NNE) 2,409 9.5 -15.9°
Sets 07:48:07 0° 44° (NE) 3,411 10.2 -15.9°
